7 * 24
多渠道服务支持
STARLINK-11167 [DTC] 是 SpaceX 星链(Starlink)卫星互联网项目中的一颗低轨通信卫星。该卫星属于星链计划的第二代(Gen2)卫星群,旨在提供更高速、低延迟的全球互联网服务。DTC(Direct to Cell)功能使其能够直接连接蜂窝设备,无需用户额外安装终端。该卫星部署在近地轨道,支持全球范围内的宽带接入,尤其在偏远地区具有重要意义。其发射和运行是 SpaceX 扩展全球卫星通信网络、实现无缝互联网覆盖的关键一步。
美国
(US)
| 数据来源 | 国际轨道数据 |
| 星历时间: | 2025-10-28T05:25:16+0800 1天前 查看轨道信息 |
| 半长轴: | 6737.838km |
| 偏心率: | 0.0001852 |
| 轨道倾角: | 53.159° |
| 近地点辐角 | 108.683° |
| 升交点赤经 | 125.877° |
| 平近点角 | 251.438° |
| 近地点: | 358.455km |
| 远地点: | 360.951km |
| 周期: | 91.736分钟 |
| 每日圈数: | 15.69719 |